EW7146 Weather Reports


time (UTC)temp
F
wind
direction
speed
knots
gust
knots
rain 1hr
in
rain 24hr
in
rain mn
in
humidity
%
barometer
mb
20260902114517 57 250 1.7 2.6 0.00 0.00 0.00 77 1017.4
20260902114017 57 120 0.0 0.0 0.00 0.00 0.00 73 1017.4
20260902113518 57 120 0.0 0.0 0.00 0.00 0.00 74 1017.7
20260902113017 57 202 0.0 0.9 0.00 0.00 0.00 73 1017.6
20260902112738 57 196 0.0 0.9 0.00 0.00 0.00 72 1017.6
20260902112017 58 213 0.0 0.0 0.00 0.00 0.00 74 1017.7
20260902111516 58 107 0.0 0.0 0.00 0.00 0.00 77 1017.8
20260902111017 58 199 0.0 1.7 0.00 0.00 0.00 76 1017.8
20260902110517 58 203 0.0 1.7 0.00 0.00 0.00 75 1017.7
20260902110017 58 190 0.0 0.0 0.00 0.00 0.00 79 1017.7
20260902105515 58 292 0.0 0.0 0.00 0.00 0.00 78 1017.7
20260902105017 58 292 0.0 0.0 0.00 0.00 0.00 78 1017.7
20260902104516 58 292 0.0 0.0 0.00 0.00 0.00 77 1017.7
20260902104018 58 292 0.0 0.0 0.00 0.00 0.00 77 1017.7
20260902103516 58 292 0.0 0.9 0.00 0.00 0.00 77 1017.7
20260902103016 58 292 0.0 0.9 0.00 0.00 0.00 76 1017.8
20260902102516 58 292 0.0 0.9 0.00 0.00 0.00 75 1017.9
20260902102015 58 97 0.0 0.0 0.00 0.00 0.00 74 1017.8
20260902101516 58 199 0.0 0.0 0.00 0.00 0.00 73 1017.8
20260902101016 58 199 0.0 0.0 0.00 0.00 0.00 74 1017.9
20260902100515 59 216 0.0 0.9 0.00 0.00 0.00 74 1018.0
20260902100015 59 209 0.0 0.9 0.00 0.00 0.00 74 1018.2
20260902095736 59 162 0.0 0.0 0.00 0.00 0.00 74 1018.2
20260902095014 59 162 0.0 0.0 0.00 0.00 0.00 75 1018.2
20260902094515 59 162 0.0 0.0 0.00 0.00 0.00 76 1018.4
20260902094014 59 162 0.0 0.0 0.00 0.00 0.00 75 1018.4
20260902093514 59 162 0.0 0.0 0.00 0.00 0.00 72 1018.5
20260902093015 60 162 0.0 0.0 0.00 0.00 0.00 71 1018.6
20260902092732 60 162 0.0 0.0 0.00 0.00 0.00 70 1018.6
20260902092015 60 162 0.0 0.9 0.00 0.00 0.00 74 1018.7
20260902091514 60 162 0.0 0.9 0.00 0.00 0.00 74 1018.6
20260902091016 60 68 0.0 0.0 0.00 0.00 0.00 74 1018.8
20260902090513 61 68 0.0 1.7 0.00 0.00 0.00 73 1018.8
20260902090241 61 68 0.0 1.7 0.00 0.00 0.00 73 1018.9
20260902085514 61 93 0.0 0.0 0.00 0.00 0.00 71 1018.9
20260902085013 61 178 0.0 0.0 0.00 0.00 0.00 72 1018.8
20260902084513 61 300 0.0 1.7 0.00 0.00 0.00 72 1018.7
20260902084012 61 290 0.0 1.7 0.00 0.00 0.00 73 1018.8
20260902083514 61 302 0.0 0.9 0.00 0.00 0.00 74 1018.8
20260902083013 61 292 0.0 0.9 0.00 0.00 0.00 74 1018.8
20260902082741 60 23 0.0 0.0 0.00 0.00 0.00 75 1018.8
20260902082013 60 23 0.0 0.0 0.00 0.00 0.00 75 1018.7
20260902081512 61 316 0.0 0.0 0.00 0.00 0.00 75 1018.8
20260902081013 61 316 0.0 0.0 0.00 0.00 0.00 75 1018.7
20260902080737 61 316 0.0 0.0 0.00 0.00 0.00 75 1018.7
20260902080013 60 316 0.0 0.0 0.00 0.00 0.00 75 1018.9
20260902075512 61 316 0.0 0.0 0.00 0.00 0.00 75 1018.8
20260902075013 61 316 0.0 0.0 0.00 0.00 0.00 75 1018.8
20260902074735 61 316 0.0 0.0 0.00 0.00 0.00 74 1018.8
20260902074241 62 316 0.0 0.0 0.00 0.00 0.00 73 1018.8
20260902073734 62 316 0.0 0.0 0.00 0.00 0.00 72 1018.8
20260902073011 62 316 0.0 0.0 0.00 0.00 0.00 70 1018.7
20260902072512 63 316 0.0 2.6 0.00 0.00 0.00 68 1018.7
20260902072012 63 244 0.0 2.6 0.00 0.00 0.00 68 1018.6
20260902072000 63 266 0.0 2.6 0.00 0.00 0.00 68 1018.6
20260902071011 63 259 0.0 2.6 0.00 0.00 0.00 67 1018.5
20260902070512 63 313 0.9 2.6 0.00 0.00 0.00 68 1018.6
20260902070011 63 334 0.0 3.5 0.00 0.00 0.00 68 1018.6
20260902065512 63 295 0.0 3.5 0.00 0.00 0.00 67 1018.6
20260902065012 64 329 0.0 2.6 0.00 0.00 0.00 66 1018.5
20260902064511 64 248 0.0 6.1 0.00 0.00 0.00 66 1018.5
20260902064232 64 1 0.9 6.1 0.00 0.00 0.00 65 1018.4
20260902063732 64 285 1.7 7.8 0.00 0.00 0.00 65 1018.5
20260902063011 64 305 0.0 7.8 0.00 0.00 0.00 65 1018.4
20260902062510 64 296 0.9 3.5 0.00 0.00 0.00 65 1018.5
20260902062012 64 292 0.9 2.6 0.00 0.00 0.00 65 1018.5
20260902061510 64 333 0.0 2.6 0.00 0.00 0.00 64 1018.4
20260902061011 64 290 0.9 1.7 0.00 0.00 0.00 64 1018.5
20260902060509 64 298 0.0 1.7 0.00 0.00 0.00 63 1018.5
20260902060009 65 312 0.0 3.5 0.00 0.00 0.00 63 1018.5
20260902055510 65 293 0.0 3.5 0.00 0.00 0.00 63 1018.5
20260902055234 65 323 2.6 3.5 0.00 0.00 0.00 62 1018.5
20260902054510 66 321 1.7 2.6 0.00 0.00 0.00 59 1018.6
20260902054010 66 329 0.9 3.5 0.00 0.00 0.00 58 1018.6
20260902053513 66 341 0.0 3.5 0.00 0.00 0.00 56 1018.6
20260902053009 66 302 0.0 6.1 0.00 0.00 0.00 56 1018.7
20260902052508 66 282 0.9 6.1 0.00 0.00 0.00 55 1018.7
20260902052018 66 298 0.0 3.5 0.00 0.00 0.00 55 1018.8
20260902051509 67 278 0.0 0.9 0.00 0.00 0.00 54 1018.8
20260902051009 67 275 0.0 1.7 0.00 0.00 0.00 53 1018.7
20260902050734 68 293 0.0 1.7 0.00 0.00 0.00 51 1018.5
20260902050009 68 276 0.0 0.9 0.00 0.00 0.00 50 1018.6
20260902045730 69 255 0.0 0.9 0.00 0.00 0.00 46 1018.6
20260902045009 69 255 0.0 2.6 0.00 0.00 0.00 44 1018.6
20260902044735 70 255 0.0 3.5 0.00 0.00 0.00 42 1018.6
20260902044008 70 255 0.9 5.2 0.00 0.00 0.00 41 1018.5
20260902043508 70 251 1.7 5.2 0.00 0.00 0.00 42 1018.3
20260902043007 69 278 1.7 5.2 0.00 0.00 0.00 42 1018.3
20260902042508 69 282 0.0 1.7 0.00 0.00 0.00 44 1018.2
20260902042007 70 276 0.0 2.6 0.00 0.00 0.00 40 1018.3
20260902041509 70 197 0.9 3.5 0.00 0.00 0.00 39 1018.3
20260902041007 71 161 2.6 3.5 0.00 0.00 0.00 39 1018.3
20260902040508 71 162 1.7 2.6 0.00 0.00 0.00 39 1018.3
20260902040008 71 135 0.0 3.5 0.00 0.00 0.00 38 1018.2
20260902035506 71 168 1.7 3.5 0.00 0.00 0.00 38 1018.4
20260902035006 71 243 0.9 5.2 0.00 0.00 0.00 38 1018.3
20260902034507 72 169 0.0 5.2 0.00 0.00 0.00 38 1018.2
20260902034012 71 117 3.5 5.2 0.00 0.00 0.00 37 1018.0
20260902033736 71 200 0.0 1.7 0.00 0.00 0.00 38 1017.9
20260902033008 72 141 0.0 3.5 0.00 0.00 0.00 38 1017.8
20260902032506 72 164 1.7 9.6 0.00 0.00 0.00 37 1017.7
20260902032010 72 125 2.6 10.4 0.00 0.00 0.00 37 1017.6
20260902031505 72 210 3.5 10.4 0.00 0.00 0.00 36 1017.4
20260902031005 72 169 5.2 9.6 0.00 0.00 0.00 36 1017.4
20260902030511 73 171 5.2 14.8 0.00 0.00 0.00 36 1017.2
20260902030227 73 144 6.1 14.8 0.00 0.00 0.00 36 1017.1
20260902025509 73 130 5.2 10.4 0.00 0.00 0.00 35 1017.0
20260902025005 73 138 5.2 10.4 0.00 0.00 0.00 35 1017.0
20260902024506 73 214 2.6 10.4 0.00 0.00 0.00 35 1017.0
20260902024454 74 144 2.6 8.7 0.00 0.00 0.00 35 1017.0
20260902023504 74 131 3.5 8.7 0.00 0.00 0.00 34 1017.0
20260902023238 74 154 2.6 7.8 0.00 0.00 0.00 34 1017.0
20260902022505 75 124 1.7 8.7 0.00 0.00 0.00 33 1017.0
20260902022005 75 210 3.5 8.7 0.00 0.00 0.00 33 1016.9
20260902021506 76 155 4.3 8.7 0.00 0.00 0.00 32 1016.8
20260902021222 76 206 3.5 11.3 0.00 0.00 0.00 32 1016.7
20260902020504 76 133 5.2 11.3 0.00 0.00 0.00 32 1016.7
20260902020453 76 155 5.2 9.6 0.00 0.00 0.00 31 1016.4
20260902015505 77 127 4.3 9.6 0.00 0.00 0.00 31 1016.4
20260902015004 77 182 2.6 10.4 0.00 0.00 0.00 32 1016.4
20260902014508 78 131 6.1 10.4 0.00 0.00 0.00 32 1016.4
20260902014001 78 99 5.2 9.6 0.00 0.00 0.00 32 1016.5
20260902013505 78 142 3.5 8.7 0.00 0.00 0.00 31 1016.3
20260902013236 79 125 4.3 10.4 0.00 0.00 0.00 31 1016.3
20260902012504 79 110 1.7 10.4 0.00 0.00 0.00 31 1016.3
20260902012003 80 110 4.3 8.7 0.00 0.00 0.00 30 1016.2
20260902011505 80 124 1.7 9.6 0.00 0.00 0.00 30 1016.2
20260902011225 81 69 4.3 10.4 0.00 0.00 0.00 29 1016.1
20260902010727 81 100 5.2 10.4 0.00 0.00 0.00 29 1016.1
20260902010000 81 86 3.5 10.4 0.00 0.00 0.00 29 1016.2
20260902005501 81 102 5.2 13.0 0.00 0.00 0.00 29 1016.1
20260902005004 82 130 6.1 13.0 0.00 0.00 0.00 29 1016.1
20260902004503 82 128 2.6 8.7 0.00 0.00 0.00 29 1016.1
20260902004232 82 107 3.5 8.7 0.00 0.00 0.00 29 1016.1
20260902003722 82 106 2.6 9.6 0.00 0.00 0.00 28 1016.2
20260902003005 82 103 4.3 10.4 0.00 0.00 0.00 28 1016.2
20260902002502 82 127 3.5 10.4 0.00 0.00 0.00 28 1016.2
20260902002003 82 142 5.2 11.3 0.00 0.00 0.00 28 1016.2
20260902001502 82 104 5.2 12.2 0.00 0.00 0.00 28 1016.3
20260902001222 82 127 6.1 12.2 0.00 0.00 0.00 28 1016.4
20260902000502 82 106 2.6 11.3 0.00 0.00 0.00 29 1016.3
20260902000001 82 145 3.5 10.4 0.00 0.00 0.00 28 1016.4
20260901235503 82 118 4.3 13.0 0.00 0.00 0.00 29 1016.4
20260901235001 82 138 6.1 13.0 0.00 0.00 0.00 28 1016.5
20260901234501 81 134 5.2 10.4 0.00 0.00 0.00 28 1016.4
20260901234447 81 121 5.2 10.4 0.00 0.00 0.00 28 1016.5
20260901233725 81 127 5.2 11.3 0.00 0.00 0.00 28 1016.7
20260901232958 81 134 5.2 12.2 0.00 0.00 0.00 28 1016.7
20260901232458 81 125 6.1 12.2 0.00 0.00 0.00 28 1016.7
20260901232001 81 131 5.2 10.4 0.00 0.00 0.00 28 1016.7
20260901231501 81 118 4.3 12.2 0.00 0.00 0.00 28 1016.8
20260901231224 81 104 5.2 12.2 0.00 0.00 0.00 28 1016.8
20260901230500 81 102 4.3 10.4 0.00 0.00 0.00 28 1017.0
20260901225959 81 78 5.2 11.3 0.00 0.00 0.00 28 1017.0
20260901225502 81 82 5.2 11.3 0.00 0.00 0.00 27 1017.0
20260901224959 81 102 5.2 11.3 0.00 0.00 0.00 27 1017.0
20260901224500 81 137 6.1 11.3 0.00 0.00 0.00 27 1016.9
20260901224002 81 152 7.8 11.3 0.00 0.00 0.00 26 1016.9
20260901223500 82 94 3.5 13.0 0.00 0.00 0.00 26 1016.8
20260901223000 82 99 4.3 13.0 0.00 0.00 0.00 26 1016.9
20260901222500 82 100 5.2 9.6 0.00 0.00 0.00 26 1016.9
20260901222224 83 140 5.2 8.7 0.00 0.00 0.00 25 1016.8
20260901221947 83 116 4.3 7.8 0.00 0.00 0.00 25 1016.8
20260901220959 83 107 2.6 8.7 0.00 0.00 0.00 25 1016.8
20260901220458 83 90 2.6 10.4 0.00 0.00 0.00 25 1016.8
20260901215956 84 121 6.1 10.4 0.00 0.00 0.00 24 1016.8
20260901215455 85 113 3.5 11.3 0.00 0.00 0.00 24 1016.8
20260901215000 84 63 4.3 11.3 0.00 0.00 0.00 24 1016.8
20260901214458 85 117 3.5 9.6 0.00 0.00 0.00 24 1016.8
20260901213957 84 73 3.5 7.8 0.00 0.00 0.00 24 1017.0
20260901213458 83 83 3.5 9.6 0.00 0.00 0.00 25 1017.1
20260901212958 83 114 4.3 9.6 0.00 0.00 0.00 24 1017.1
20260901212458 83 83 3.5 7.8 0.00 0.00 0.00 25 1017.2
20260901211958 83 75 3.5 7.8 0.00 0.00 0.00 25 1017.2
20260901211736 84 65 2.6 5.2 0.00 0.00 0.00 25 1017.2
20260901210957 84 113 2.6 6.1 0.00 0.00 0.00 25 1017.2
20260901210458 84 37 3.5 6.1 0.00 0.00 0.00 25 1017.2
20260901205957 84 130 2.6 6.1 0.00 0.00 0.00 26 1017.4
20260901205457 83 135 2.6 9.6 0.00 0.00 0.00 26 1017.4
20260901204957 82 73 1.7 9.6 0.00 0.00 0.00 27 1017.4
20260901204723 82 71 2.6 7.8 0.00 0.00 0.00 27 1017.5
20260901204219 83 65 2.6 7.8 0.00 0.00 0.00 26 1017.6
20260901203456 83 131 2.6 7.8 0.00 0.00 0.00 26 1017.6
20260901202954 82 79 3.5 7.8 0.00 0.00 0.00 27 1017.6
20260901202455 82 82 2.6 9.6 0.00 0.00 0.00 27 1017.7
20260901201957 82 135 3.5 9.6 0.00 0.00 0.00 28 1017.8
20260901201457 81 89 1.7 6.1 0.00 0.00 0.00 29 1017.8
20260901200956 81 104 1.7 5.2 0.00 0.00 0.00 29 1017.9
20260901200727 80 59 1.7 3.5 0.00 0.00 0.00 30 1018.0
20260901195956 80 83 1.7 3.5 0.00 0.00 0.00 31 1018.0
20260901195456 79 55 0.9 4.3 0.00 0.00 0.00 32 1018.2
20260901194956 78 107 0.0 4.3 0.00 0.00 0.00 33 1018.3
20260901194457 78 90 0.9 2.6 0.00 0.00 0.00 34 1018.3
20260901194220 78 251 0.0 3.5 0.00 0.00 0.00 33 1018.3
20260901193457 78 110 1.7 3.5 0.00 0.00 0.00 33 1018.5
20260901192956 78 133 2.6 3.5 0.00 0.00 0.00 33 1018.5
20260901192455 78 10 2.6 4.3 0.00 0.00 0.00 32 1018.6
20260901191955 79 66 0.9 5.2 0.00 0.00 0.00 33 1018.8
20260901191455 78 100 1.7 5.2 0.00 0.00 0.00 34 1018.9
20260901190957 78 47 0.9 4.3 0.00 0.00 0.00 32 1019.0
20260901190711 77 94 0.9 3.5 0.00 0.00 0.00 31 1019.1
20260901190213 77 117 1.7 3.5 0.00 0.00 0.00 32 1019.3
20260901185454 76 83 0.9 3.5 0.00 0.00 0.00 32 1019.4
20260901184954 76 62 1.7 3.5 0.00 0.00 0.00 33 1019.4
20260901184454 75 109 1.7 3.5 0.00 0.00 0.00 33 1019.4
20260901183954 75 144 0.9 3.5 0.00 0.00 0.00 35 1019.5
20260901183454 74 96 0.9 3.5 0.00 0.00 0.00 36 1019.5
20260901182956 74 51 1.7 3.5 0.00 0.00 0.00 35 1019.6
20260901182450 73 51 0.0 2.6 0.00 0.00 0.00 36 1019.8
20260901181951 73 48 0.9 3.5 0.00 0.00 0.00 37 1019.9
20260901181452 73 83 1.7 3.5 0.00 0.00 0.00 39 1019.9
20260901181219 72 68 0.9 2.6 0.00 0.00 0.00 40 1020.0
20260901180454 72 78 0.9 2.6 0.00 0.00 0.00 40 1020.1
20260901175959 72 71 0.0 2.6 0.00 0.00 0.00 40 1020.2
20260901175453 72 114 0.9 2.6 0.00 0.00 0.00 40 1020.3
20260901175220 71 65 0.9 1.7 0.00 0.00 0.00 40 1020.2
20260901174453 70 154 0.0 2.6 0.00 0.00 0.00 44 1020.3
20260901173953 69 245 1.7 2.6 0.00 0.00 0.00 44 1020.3
20260901173453 69 329 0.9 2.6 0.00 0.00 0.00 44 1020.3
20260901172954 68 121 0.0 0.9 0.00 0.00 0.00 46 1020.4
20260901172453 67 113 0.0 0.9 0.00 0.00 0.00 47 1020.6
20260901172213 67 321 0.0 2.6 0.00 0.00 0.00 48 1020.7
20260901171452 66 344 0.0 2.6 0.00 0.00 0.00 50 1020.6
20260901170952 65 66 0.0 1.7 0.00 0.00 0.00 51 1020.8
20260901170452 65 124 0.9 1.7 0.00 0.00 0.00 52 1020.9
20260901165952 65 45 0.0 1.7 0.00 0.00 0.00 53 1021.0
20260901165715 64 49 0.9 1.7 0.00 0.00 0.00 54 1021.1
20260901164954 64 78 0.9 1.7 0.00 0.00 0.00 55 1021.4
20260901164453 63 90 0.0 1.7 0.00 0.00 0.00 56 1021.5
20260901163952 62 113 0.0 0.0 0.00 0.00 0.00 58 1021.5
20260901163451 62 217 0.0 0.0 0.00 0.00 0.00 59 1021.6
20260901162951 61 217 0.0 0.0 0.00 0.00 0.00 60 1021.5
20260901162456 61 217 0.0 0.0 0.00 0.00 0.00 60 1021.5
20260901161951 60 217 0.0 0.0 0.00 0.00 0.00 60 1021.5
20260901161450 60 188 0.0 0.0 0.00 0.00 0.00 64 1021.6
20260901160952 60 188 0.0 0.0 0.00 0.00 0.00 64 1021.5
20260901160450 59 188 0.0 0.0 0.00 0.00 0.00 66 1021.5
20260901155951 58 188 0.0 0.0 0.00 0.00 0.00 67 1021.6
20260901155455 57 172 0.0 0.0 0.00 0.00 0.00 70 1021.7
20260901154950 56 157 0.0 0.0 0.00 0.00 0.00 72 1021.8
20260901154450 55 157 0.0 0.0 0.00 0.00 0.00 75 1021.8
20260901153950 55 157 0.0 0.0 0.00 0.00 0.00 75 1021.9
20260901153450 54 157 0.0 0.0 0.00 0.00 0.00 77 1021.9
20260901152950 54 157 0.0 0.0 0.00 0.00 0.00 78 1022.0
20260901152451 54 157 0.0 0.0 0.00 0.00 0.00 77 1022.0
20260901151950 53 157 0.0 0.0 0.00 0.00 0.00 79 1022.1
20260901151719 52 154 0.0 0.0 0.00 0.00 0.00 81 1022.0
20260901150950 52 154 0.0 0.0 0.00 0.00 0.00 82 1022.1
20260901150709 51 152 0.0 0.0 0.00 0.00 0.00 82 1022.2
20260901145950 51 154 0.0 0.0 0.00 0.00 0.00 82 1022.2
20260901145450 51 154 0.0 0.0 0.00 0.00 0.00 81 1022.2
20260901144950 50 154 0.0 0.0 0.00 0.00 0.00 82 1022.2
20260901144450 49 152 0.0 0.0 0.00 0.00 0.00 85 1022.2
20260901143952 48 161 0.0 0.0 0.00 0.00 0.00 87 1022.4
20260901143449 47 161 0.0 0.0 0.00 0.00 0.00 87 1022.3
20260901142950 47 161 0.0 0.0 0.00 0.00 0.00 86 1022.3
20260901142448 47 161 0.0 0.0 0.00 0.00 0.00 87 1022.3
20260901141948 47 161 0.0 0.0 0.00 0.00 0.00 87 1022.2
20260901141448 47 161 0.0 0.0 0.00 0.00 0.00 86 1022.2
20260901140948 47 161 0.0 0.0 0.00 0.00 0.00 85 1022.2
20260901140449 47 161 0.0 0.0 0.00 0.00 0.00 85 1022.1
20260901135947 47 161 0.0 0.0 0.00 0.00 0.00 85 1022.2
20260901135449 47 161 0.0 0.0 0.00 0.00 0.00 84 1022.2
20260901134948 47 161 0.0 0.0 0.00 0.00 0.00 84 1022.1
20260901134449 47 161 0.0 0.0 0.00 0.00 0.00 85 1022.1
20260901133948 47 149 0.0 0.0 0.00 0.00 0.00 85 1022.1
20260901133447 46 151 0.0 0.0 0.00 0.00 0.00 85 1022.0
20260901132950 47 149 0.0 0.0 0.00 0.00 0.00 84 1022.0
20260901132447 47 149 0.0 0.0 0.00 0.00 0.00 83 1022.0
20260901131947 47 151 0.0 0.0 0.00 0.00 0.00 83 1022.0
20260901131447 47 149 0.0 0.0 0.00 0.00 0.00 83 1022.0
20260901130949 47 148 0.0 0.0 0.00 0.00 0.00 83 1022.0
20260901130447 47 145 0.0 0.0 0.00 0.00 0.00 83 1021.9
20260901130211 48 159 0.0 0.0 0.00 0.00 0.00 82 1021.9
20260901125446 49 213 0.0 1.7 0.00 0.00 0.00 80 1022.0
20260901124946 48 212 0.0 1.7 0.00 0.00 0.00 81 1022.0
20260901124458 48 157 0.0 0.0 0.00 0.00 0.00 82 1022.1
20260901123946 48 8 0.0 0.0 0.00 0.00 0.00 82 1022.0
20260901123447 49 234 0.0 0.0 0.00 0.00 0.00 81 1022.1
20260901122947 49 234 0.0 0.0 0.00 0.00 0.00 80 1022.1
20260901122447 49 219 0.0 0.0 0.00 0.00 0.00 82 1022.2
20260901121946 48 255 0.0 0.0 0.00 0.00 0.00 83 1022.2
20260901121446 47 255 0.0 0.0 0.00 0.00 0.00 84 1022.2
20260901120945 47 255 0.0 0.0 0.00 0.00 0.00 84 1022.2
20260901120445 47 255 0.0 0.0 0.00 0.00 0.00 83 1022.3
20260901115946 47 255 0.0 0.0 0.00 0.00 0.00 84 1022.3
20260901115445 47 255 0.0 0.0 0.00 0.00 0.00 85 1022.3
20260901114946 47 271 0.0 0.0 0.00 0.00 0.00 85 1022.5